MUOS-5

Last updated on Sat Aug 15 2026 00:03:00 GMT+0000 (Coordinated Universal Time)

1 41622U 16041A 26226.54690932 -.00000165 00000+0 00000+0 0 9994 2 41622 2.0827 302.8921 0201869 260.5915 211.3374 1.00271919 37679
UTC large
Height (km)
Speed (km/s)
/
Latitude / Longitude
Inclination (degrees)
Orbital Period (minutes)
Azimuth
Elevation
Range (km)
Doppler Factor

Next 0 passes for location: London (51.5072 / 0.1276)

No passes found over London.
MUOS-5